Flag for Brazil Weather past 2 weeks in Niterói, Rio de Janeiro, Brazil

Now
68 °F

Clear.


Feels Like: 68 °F
Forecast: 62 / 81 °F
Wind: 8 mph from North

Location: Rio De Janeiro Airport

Current Time: Aug 1, 2014 at 11:02:35 AM

Latest Report: Aug 1, 2014 at 10:00 AM


Visibility: 4 mi

Pressure: 30.12 "Hg

Humidity: 88%

Dew point: 64 °F

Location of NiteróiLocation

Historic Weather in Niterói — Graph

°F

Niterói temperature yesterday

Maximum temperature yesterday: 75 °F (at 4:00 PM)
Minimum temperature yesterday: 63 °F (at 6:00 AM)
Average temperature yesterday: 69 °F

Past Weeks' High & Low Weather Summary

 TemperatureHumidityPressure
High88 °F (Jul 18, 12:00 PM)100% (Jul 27, 2:00 PM)30.42 "Hg (Jul 27, 2:00 PM)
Low63 °F (Jul 30, 7:00 AM)37% (Jul 24, 1:00 PM)29.86 "Hg (Jul 24, 4:00 PM)
Average71 °F74%30.17 "Hg
* Reported Jul 17 10:00 AM — Aug 1 10:00 AM, Niterói, Weather by CustomWeather, © 2014

Note: Actual official high and low records may vary slightly from our data, if they occured in-between our weather recording intervals... More about our weather records

Advertising

Niterói weather history for previous 24 hours

 ConditionsComfort  
Time TempWeatherWind HumidityBarometerVisibility
10:00 AM
Aug 1
68 °FClear.8 mph88%30.12 "Hg4 mi
9:00 AM66 °FFog.6 mph94%30.12 "Hg4 mi
7:00 AM66 °FFog.6 mph94%30.09 "Hg3 mi
6:00 AM64 °FFog.7 mph100%30.07 "Hg3 mi
11:00 PM
Jul 31
68 °FClear.No wind83%30.12 "Hg10 mi
10:00 PM68 °FClear.No wind83%30.12 "Hg10 mi
9:00 PM68 °FClear.No wind83%30.12 "Hg10 mi
8:00 PM70 °FClear.2 mph78%30.12 "Hg10 mi
7:00 PM72 °FPassing clouds.5 mph78%30.09 "HgN/A
6:00 PM70 °FPassing clouds.8 mph83%30.09 "HgN/A
5:00 PM72 °FPassing clouds.10 mph78%30.09 "HgN/A
4:00 PM75 °FPassing clouds.10 mph65%30.09 "HgN/A
3:00 PM73 °FPassing clouds.10 mph69%30.09 "HgN/A
2:00 PM73 °FPassing clouds.12 mph65%30.12 "HgN/A
12:00 PM72 °FSunny.5 mph65%30.18 "Hg10 mi
11:00 AM70 °FSunny.5 mph73%30.18 "Hg10 mi
Weather by CustomWeather, © 2014

See weather overviewHow to use our weather pages